,,PA_Meas_PMT16A,,PR_Meas_QMR101_102,,RH_Meas_QMH101,,SR_Meas_QMS101,,TA_Meas_QMH101,,GenWind,,GenWind,
time,status,PA,status,PR,status,RH,status,SR,status,TA,status,DirAvg,status,SpdAvg,
2014-04-26, 06:37:04,VALID,916.567,VALID,0,VALID,96.8174,VALID,26.2156,VALID,19.6638,VALID,107,VALID,0.757031,
2014-04-26, 06:38:04,VALID,916.567,VALID,0,VALID,96.8403,VALID,28.0421,VALID,19.6638,VALID,115,VALID,1.15625,
2014-04-26, 06:39:04,VALID,916.537,VALID,0,VALID,96.8631,VALID,29.8686,VALID,19.7043,VALID,123,VALID,1.24688,
2014-04-26, 06:40:04,VALID,916.574,VALID,0,VALID,96.8403,VALID,31.8026,VALID,19.7238,VALID,133,VALID,1.16445,
2014-04-26, 06:41:04,VALID,916.568,VALID,0,VALID,96.8555,VALID,33.7365,VALID,19.7628,VALID,131,VALID,0.812891,
2014-04-26, 06:42:04,VALID,916.528,VALID,0,VALID,96.8326,VALID,35.7779,VALID,19.7223,VALID,126,VALID,0.680859,
2014-04-26, 06:43:04,VALID,916.548,VALID,0,VALID,96.8326,VALID,37.9267,VALID,19.7028,VALID,129,VALID,1.12578,
2014-04-26, 06:44:04,VALID,916.556,VALID,0,VALID,96.8631,VALID,40.0756,VALID,19.7418,VALID,133,VALID,0.71875,
2014-04-26, 06:45:04,VALID,916.565,VALID,0,VALID,96.8555,VALID,42.3318,VALID,19.7613,VALID,133,VALID,0.689453,
2014-04-26, 06:46:04,VALID,916.568,VALID,0,VALID,96.8326,VALID,44.6955,VALID,19.7823,VALID,133,VALID,0.640234,
2014-04-26, 06:47:04,VALID,916.591,VALID,0,VALID,96.8555,VALID,47.1667,VALID,19.7823,VALID,133,VALID,0.636719,
2014-04-26, 06:48:04,VALID,916.605,VALID,0,VALID,96.8479,VALID,50.0676,VALID,19.8003,VALID,133,VALID,0.694922,
2014-04-26, 06:49:04,VALID,916.615,VALID,0,VALID,96.8479,VALID,52.9685,VALID,19.8003,VALID,133,VALID,0.695313,
2014-04-26, 06:50:04,VALID,916.623,VALID,0,VALID,96.8326,VALID,55.762,VALID,19.8393,VALID,133,VALID,0.382422,
2014-04-26, 06:51:04,VALID,916.621,VALID,0,VALID,96.8174,VALID,58.448,VALID,19.8783,VALID,133,VALID,0.0597656,
2014-04-26, 06:52:04,VALID,916.601,VALID,0,VALID,96.8098,VALID,61.134,VALID,19.9173,VALID,133,VALID,0.184375,
2014-04-26, 06:53:04,VALID,916.659,VALID,0,VALID,96.8174,VALID,64.3572,VALID,19.9773,VALID,133,VALID,0.150781,
2014-04-26, 06:54:04,VALID,916.657,VALID,0,VALID,96.8098,VALID,69.1921,VALID,19.9968,VALID,133,VALID,0.00507812,
2014-04-26, 06:55:04,VALID,916.67,VALID,0,VALID,96.7945,VALID,76.4981,VALID,20.0358,VALID,133,VALID,0.319141,
2014-04-26, 06:56:04,VALID,916.709,VALID,0,VALID,96.7716,VALID,83.6967,VALID,20.0944,VALID,133,VALID,0.299609,
2014-04-26, 06:57:04,VALID,916.714,VALID,0,VALID,96.7793,VALID,89.2836,VALID,20.1513,VALID,133,VALID,0.0109375,
2014-04-26, 06:58:04,VALID,916.736,VALID,0,VALID,96.7793,VALID,95.3003,VALID,20.2114,VALID,133,VALID,0.316016,
2014-04-26, 06:59:04,VALID,916.772,VALID,0,VALID,96.7945,VALID,102.821,VALID,20.1724,VALID,133,VALID,0.222266,
2014-04-26, 18:29:04,VALID,916.152,VALID,0,VALID,96.5353,VALID,0.644647,VALID,20.7739,VALID,16,VALID,1.03242,
2014-04-26, 18:30:04,VALID,916.112,VALID,0,VALID,96.5277,VALID,0.644647,VALID,20.8145,VALID,357,VALID,1.11523,
2014-04-26, 18:31:04,VALID,916.135,VALID,0,VALID,96.5353,VALID,0.429765,VALID,20.8129,VALID,340,VALID,0.685156,
2014-04-26, 19:20:04,VALID,916.586,VALID,0,VALID,96.5811,VALID,0,VALID,20.5414,VALID,9,VALID,0.520312,
2014-04-26, 19:36:04,VALID,916.862,VALID,0,VALID,96.5963,VALID,0,VALID,20.5414,VALID,12,VALID,0.498828,
2014-04-26, 19:37:04,VALID,916.884,VALID,0,VALID,96.5963,VALID,0,VALID,20.5219,VALID,12,VALID,0.840625,
2014-04-26, 19:38:04,VALID,916.908,VALID,0,VALID,96.6039,VALID,0,VALID,20.543,VALID,12,VALID,0.795703,
2014-04-26, 19:39:04,VALID,916.925,VALID,0,VALID,96.6039,VALID,0,VALID,20.5024,VALID,12,VALID,0.875781,
2014-04-26, 19:40:04,VALID,916.94,VALID,0,VALID,96.6192,VALID,0,VALID,20.5024,VALID,38,VALID,0.799609,
2014-04-26, 19:41:04,VALID,916.942,VALID,0,VALID,96.5887,VALID,0,VALID,20.5024,VALID,103,VALID,0.957422,
2014-04-26, 19:43:04,VALID,916.969,VALID,0,VALID,96.6268,VALID,0,VALID,20.5024,VALID,111,VALID,0.840625,
2014-04-26, 19:44:04,VALID,916.964,VALID,0,VALID,96.6268,VALID,0,VALID,20.4829,VALID,112,VALID,0.425781,
2014-04-26, 19:45:04,VALID,916.961,VALID,0,VALID,96.6192,VALID,0,VALID,20.4618,VALID,111,VALID,0.657031,
2014-04-26, 19:46:04,VALID,916.966,VALID,0,VALID,96.6344,VALID,0,VALID,20.5024,VALID,111,VALID,0.629297,
2014-04-26, 19:47:04,VALID,916.972,VALID,0,VALID,96.6344,VALID,0,VALID,20.5219,VALID,111,VALID,0.324219,
2014-04-26, 19:48:04,VALID,916.969,VALID,0,VALID,96.6344,VALID,0,VALID,20.5414,VALID,111,VALID,0.549609,
2014-04-26, 19:49:04,VALID,916.938,VALID,0,VALID,96.6039,VALID,0,VALID,20.5625,VALID,111,VALID,0.830078,
2014-04-26, 19:50:04,VALID,916.957,VALID,0,VALID,96.6344,VALID,0,VALID,20.5414,VALID,111,VALID,0.958594,
2014-04-26, 19:51:04,VALID,916.97,VALID,0,VALID,96.642,VALID,0,VALID,20.5625,VALID,111,VALID,0.7375,
2014-04-26, 19:52:04,VALID,916.981,VALID,0,VALID,96.6344,VALID,0,VALID,20.5219,VALID,111,VALID,0.76875,
2014-04-26, 19:53:04,VALID,917.04,VALID,0,VALID,96.6344,VALID,0,VALID,20.5219,VALID,111,VALID,0.550781,
2014-04-26, 19:54:04,VALID,917.098,VALID,0,VALID,96.6344,VALID,0,VALID,20.5219,VALID,112,VALID,1.03828,
2014-04-26, 19:55:04,VALID,917.104,VALID,0,VALID,96.6344,VALID,0,VALID,20.5219,VALID,138,VALID,1.46367,
2014-04-26, 19:56:04,VALID,917.127,VALID,0,VALID,96.6344,VALID,0,VALID,20.5414,VALID,132,VALID,1.3582,
2014-04-26, 19:57:04,VALID,917.172,VALID,0,VALID,96.642,VALID,0,VALID,20.5414,VALID,127,VALID,1.04648,
2014-04-26, 19:58:04,VALID,917.153,VALID,0,VALID,96.6268,VALID,0,VALID,20.5219,VALID,118,VALID,0.763672,
2014-04-26, 19:59:04,VALID,917.178,VALID,0,VALID,96.642,VALID,0,VALID,20.5024,VALID,115,VALID,0.815234,
2014-04-26, 20:00:04,VALID,917.18,VALID,0,VALID,96.642,VALID,0,VALID,20.5219,VALID,114,VALID,1.28984,
2014-04-26, 20:01:04,VALID,917.196,VALID,0,VALID,96.6573,VALID,0,VALID,20.5219,VALID,118,VALID,0.808203,
2014-04-26, 20:02:04,VALID,917.222,VALID,0,VALID,96.6573,VALID,0,VALID,20.5219,VALID,122,VALID,1.03906,
2014-04-26, 20:03:04,VALID,917.227,VALID,0,VALID,96.6725,VALID,0,VALID,20.5414,VALID,130,VALID,1.05156,
2014-04-26, 20:04:04,VALID,917.253,VALID,0,VALID,96.6802,VALID,0,VALID,20.5609,VALID,128,VALID,0.841406,
2014-04-26, 20:05:04,VALID,917.275,VALID,0,VALID,96.6344,VALID,0,VALID,20.582,VALID,136,VALID,1.17188,
2014-04-26, 20:06:04,VALID,917.309,VALID,0,VALID,96.642,VALID,0,VALID,20.5609,VALID,113,VALID,1.37969,
2014-04-26, 20:07:04,VALID,917.338,VALID,0,VALID,96.6497,VALID,0,VALID,20.5609,VALID,125,VALID,1.08086,
2014-04-26, 20:08:04,VALID,917.384,VALID,0,VALID,96.6725,VALID,0,VALID,20.582,VALID,126,VALID,1.00352,
2014-04-26, 20:09:04,VALID,917.41,VALID,0,VALID,96.642,VALID,0,VALID,20.5414,VALID,122,VALID,1.13242,
2014-04-26, 20:10:04,VALID,917.406,VALID,0,VALID,96.6573,VALID,0,VALID,20.5399,VALID,128,VALID,0.763281,
2014-04-26, 20:11:04,VALID,917.418,VALID,0,VALID,96.6649,VALID,0,VALID,20.5804,VALID,105,VALID,1.19258,
2014-04-26, 20:12:04,VALID,917.44,VALID,0,VALID,96.6649,VALID,0,VALID,20.5804,VALID,126,VALID,1.40234,
2014-04-26, 20:13:04,VALID,917.419,VALID,0,VALID,96.6573,VALID,0,VALID,20.5609,VALID,129,VALID,1.14766,
2014-04-26, 20:14:04,VALID,917.421,VALID,0,VALID,96.6802,VALID,0,VALID,20.5594,VALID,129,VALID,1.1625,
2014-04-26, 20:15:04,VALID,917.395,VALID,0,VALID,96.6725,VALID,0,VALID,20.5804,VALID,148,VALID,0.713281,
2014-04-26, 20:16:04,VALID,917.413,VALID,0,VALID,96.6725,VALID,0,VALID,20.5609,VALID,130,VALID,0.957812,
2014-04-26, 20:17:04,VALID,917.394,VALID,0,VALID,96.6649,VALID,0,VALID,20.5609,VALID,142,VALID,1.22305,
2014-04-26, 20:18:04,VALID,917.4,VALID,0,VALID,96.6725,VALID,0,VALID,20.5609,VALID,139,VALID,1.41719,
2014-04-26, 20:19:04,VALID,917.364,VALID,0,VALID,96.6954,VALID,0,VALID,20.5414,VALID,130,VALID,0.494531,
2014-04-26, 20:20:04,VALID,917.35,VALID,0,VALID,96.6802,VALID,0,VALID,20.5414,VALID,150,VALID,1.22305,
2014-04-26, 20:21:04,VALID,917.34,VALID,0,VALID,96.6725,VALID,0,VALID,20.5414,VALID,140,VALID,1.10625,
2014-04-26, 20:22:04,VALID,917.311,VALID,0,VALID,96.6802,VALID,0,VALID,20.5024,VALID,134,VALID,1.16836,
2014-04-26, 20:23:04,VALID,917.317,VALID,0,VALID,96.6802,VALID,0,VALID,20.5219,VALID,131,VALID,0.924609,
2014-04-26, 20:24:04,VALID,917.308,VALID,0,VALID,96.6725,VALID,0,VALID,20.5024,VALID,133,VALID,0.828125,
2014-04-26, 20:25:04,VALID,917.302,VALID,0,VALID,96.6878,VALID,0,VALID,20.5024,VALID,130,VALID,1.09609,
2014-04-26, 20:26:04,VALID,917.328,VALID,0,VALID,96.6954,VALID,0,VALID,20.4829,VALID,128,VALID,0.979688,
2014-04-26, 20:27:04,VALID,917.369,VALID,0,VALID,96.6954,VALID,0,VALID,20.4829,VALID,125,VALID,0.570703,
2014-04-26, 20:28:04,VALID,917.377,VALID,0,VALID,96.6954,VALID,0,VALID,20.4439,VALID,126,VALID,0.642187,
2014-04-26, 20:29:04,VALID,917.424,VALID,0,VALID,96.6954,VALID,0,VALID,20.4244,VALID,126,VALID,0.358984,
2014-04-26, 20:30:04,VALID,917.435,VALID,0,VALID,96.703,VALID,0,VALID,20.4244,VALID,129,VALID,0.711328,
2014-04-26, 20:31:04,VALID,917.439,VALID,0,VALID,96.7107,VALID,0,VALID,20.4244,VALID,124,VALID,1.08555,
2014-04-26, 20:32:04,VALID,917.463,VALID,0,VALID,96.703,VALID,0,VALID,20.4244,VALID,125,VALID,0.441797,
2014-04-26, 20:33:04,VALID,917.46,VALID,0,VALID,96.7183,VALID,0,VALID,20.3659,VALID,117,VALID,1.07969,
2014-04-26, 20:34:04,VALID,917.498,VALID,0,VALID,96.7183,VALID,0,VALID,20.3659,VALID,126,VALID,0.929297,
2014-04-26, 20:35:04,VALID,917.51,VALID,0,VALID,96.7411,VALID,0,VALID,20.3074,VALID,135,VALID,0.714844,
2014-04-26, 20:36:04,VALID,917.525,VALID,0,VALID,96.7411,VALID,0,VALID,20.3074,VALID,112,VALID,0.680469,
2014-04-26, 20:37:04,VALID,917.544,VALID,0,VALID,96.7335,VALID,0,VALID,20.2879,VALID,112,VALID,0.711719,
2014-04-26, 20:38:04,VALID,917.537,VALID,0,VALID,96.7259,VALID,0,VALID,20.2879,VALID,112,VALID,0.745703,
2014-04-26, 20:39:04,VALID,917.556,VALID,0,VALID,96.7488,VALID,0,VALID,20.2684,VALID,112,VALID,0.608984,
2014-04-26, 20:40:04,VALID,917.559,VALID,0,VALID,96.7411,VALID,0,VALID,20.2684,VALID,112,VALID,0.338672,
2014-04-26, 20:41:04,VALID,917.581,VALID,0,VALID,96.7411,VALID,0,VALID,20.2684,VALID,112,VALID,0.376172,
2014-04-26, 20:42:04,VALID,917.601,VALID,0,VALID,96.7411,VALID,0,VALID,20.2879,VALID,112,VALID,0.503906,
2014-04-26, 20:43:04,VALID,917.618,VALID,0,VALID,96.7488,VALID,0,VALID,20.2489,VALID,112,VALID,0.504687,
2014-04-26, 20:44:04,VALID,917.638,VALID,0,VALID,96.7488,VALID,0,VALID,20.2293,VALID,112,VALID,0.813672,
2014-04-26, 20:45:04,VALID,917.653,VALID,0,VALID,96.7411,VALID,0,VALID,20.2489,VALID,119,VALID,1.0043,
2014-04-26, 20:46:04,VALID,917.659,VALID,0,VALID,96.7564,VALID,0,VALID,20.2293,VALID,120,VALID,0.953125,
2014-04-26, 20:47:04,VALID,917.688,VALID,0,VALID,96.7488,VALID,0,VALID,20.1903,VALID,120,VALID,0.659375,
2014-04-26, 20:48:04,VALID,917.69,VALID,0,VALID,96.764,VALID,0,VALID,20.1903,VALID,120,VALID,1.00469,
2014-04-26, 20:49:04,VALID,917.729,VALID,0,VALID,96.764,VALID,0,VALID,20.1708,VALID,115,VALID,1.41445,
2014-04-26, 20:50:04,VALID,917.751,VALID,0,VALID,96.7488,VALID,0,VALID,20.1708,VALID,124,VALID,1.33945,
2014-04-26, 20:51:04,VALID,917.771,VALID,0,VALID,96.764,VALID,0,VALID,20.1708,VALID,123,VALID,0.851563,
2014-04-26, 20:52:04,VALID,917.786,VALID,0,VALID,96.764,VALID,0,VALID,20.1708,VALID,117,VALID,0.998828,
2014-04-26, 20:53:04,VALID,917.819,VALID,0,VALID,96.7716,VALID,0,VALID,20.1513,VALID,116,VALID,0.735937,
2014-04-26, 20:54:04,VALID,917.829,VALID,0,VALID,96.7564,VALID,0,VALID,20.1724,VALID,121,VALID,0.782812,
2014-04-26, 20:55:04,VALID,917.85,VALID,0,VALID,96.7793,VALID,0,VALID,20.1513,VALID,120,VALID,0.569531,
2014-04-26, 20:56:04,VALID,917.88,VALID,0,VALID,96.7564,VALID,0,VALID,20.1318,VALID,134,VALID,0.864844,
2014-04-26, 20:57:04,VALID,917.898,VALID,0,VALID,96.7564,VALID,0,VALID,20.1529,VALID,107,VALID,0.542578,
2014-04-26, 20:58:04,VALID,917.918,VALID,0,VALID,96.7716,VALID,0,VALID,20.1318,VALID,121,VALID,0.604688,
2014-04-26, 20:59:04,VALID,917.916,VALID,0,VALID,96.7716,VALID,0,VALID,20.1513,VALID,126,VALID,0.794141,
2014-04-26, 21:00:04,VALID,917.96,VALID,0,VALID,96.7564,VALID,0,VALID,20.1708,VALID,137,VALID,0.710547,
2014-04-26, 21:01:04,VALID,917.96,VALID,0,VALID,96.764,VALID,0,VALID,20.1903,VALID,143,VALID,1.06602,
2014-04-26, 21:02:04,VALID,917.986,VALID,0,VALID,96.764,VALID,0,VALID,20.2098,VALID,147,VALID,0.934375,
2014-04-26, 21:03:04,VALID,917.982,VALID,0,VALID,96.7716,VALID,0,VALID,20.2293,VALID,141,VALID,1.38398,
2014-04-26, 21:04:04,VALID,917.97,VALID,0,VALID,96.764,VALID,0,VALID,20.2699,VALID,142,VALID,1.36016,
2014-04-26, 21:05:04,VALID,917.989,VALID,0,VALID,96.7716,VALID,0,VALID,20.2684,VALID,144,VALID,1.38633,
2014-04-26, 21:06:04,VALID,917.995,VALID,0,VALID,96.7793,VALID,0,VALID,20.2894,VALID,143,VALID,1.44922,
2014-04-26, 21:07:04,VALID,918.023,VALID,0,VALID,96.7716,VALID,0,VALID,20.2684,VALID,148,VALID,1.32383,
2014-04-26, 21:08:04,VALID,917.99,VALID,0,VALID,96.7793,VALID,0,VALID,20.2894,VALID,147,VALID,1.1543,
2014-04-26, 21:09:04,VALID,918.05,VALID,0,VALID,96.7716,VALID,0,VALID,20.3284,VALID,148,VALID,0.753125,
2014-04-26, 21:10:04,VALID,918.052,VALID,0,VALID,96.764,VALID,0,VALID,20.2879,VALID,148,VALID,1.07773,
2014-04-26, 21:11:04,VALID,918.069,VALID,0,VALID,96.7793,VALID,0,VALID,20.2684,VALID,147,VALID,1.2418,
2014-04-26, 21:12:04,VALID,918.046,VALID,0,VALID,96.7793,VALID,0,VALID,20.2699,VALID,145,VALID,1.20898,
2014-04-26, 21:13:04,VALID,918.077,VALID,0,VALID,96.764,VALID,0,VALID,20.2699,VALID,146,VALID,0.777344,
2014-04-26, 21:14:04,VALID,918.091,VALID,0,VALID,96.764,VALID,0,VALID,20.2489,VALID,145,VALID,1.11719,
2014-04-26, 21:15:04,VALID,918.069,VALID,0,VALID,96.7869,VALID,0,VALID,20.2699,VALID,145,VALID,1.0332,
2014-04-26, 21:16:04,VALID,918.064,VALID,0,VALID,96.7716,VALID,0,VALID,20.2894,VALID,146,VALID,1.14141,
2014-04-26, 21:17:04,VALID,918.065,VALID,0,VALID,96.8021,VALID,0,VALID,20.2489,VALID,146,VALID,0.846094,
2014-04-26, 21:18:04,VALID,918.058,VALID,0,VALID,96.7945,VALID,0,VALID,20.2098,VALID,149,VALID,0.951953,
2014-04-26, 21:19:04,VALID,918.054,VALID,0,VALID,96.7793,VALID,0,VALID,20.2293,VALID,164,VALID,0.927734,
2014-04-26, 21:20:04,VALID,918.063,VALID,0,VALID,96.7945,VALID,0,VALID,20.2293,VALID,166,VALID,0.598437,
2014-04-26, 21:21:04,VALID,918.064,VALID,0,VALID,96.8021,VALID,0,VALID,20.2098,VALID,165,VALID,0.275781,
2014-04-26, 21:22:04,VALID,918.07,VALID,0,VALID,96.8021,VALID,0,VALID,20.2098,VALID,165,VALID,0.566406,
2014-04-26, 21:23:04,VALID,918.092,VALID,0,VALID,96.7716,VALID,0,VALID,20.2098,VALID,164,VALID,0.221484,
2014-04-26, 21:24:04,VALID,918.104,VALID,0,VALID,96.7869,VALID,0,VALID,20.2293,VALID,163,VALID,0.807422,
2014-04-26, 21:25:04,VALID,918.117,VALID,0,VALID,96.7945,VALID,0,VALID,20.2293,VALID,151,VALID,0.874219,
2014-04-26, 21:26:04,VALID,918.11,VALID,0,VALID,96.7945,VALID,0,VALID,20.2293,VALID,151,VALID,0.848047,
2014-04-26, 21:27:04,VALID,918.115,VALID,0,VALID,96.7945,VALID,0,VALID,20.2098,VALID,141,VALID,0.837891,
2014-04-26, 21:28:04,VALID,918.135,VALID,0,VALID,96.8098,VALID,0,VALID,20.2114,VALID,140,VALID,0.674219,
2014-04-26, 21:29:04,VALID,918.155,VALID,0,VALID,96.7869,VALID,0,VALID,20.1903,VALID,141,VALID,0.825391,
2014-04-26, 21:30:04,VALID,918.187,VALID,0,VALID,96.8021,VALID,0,VALID,20.1513,VALID,146,VALID,0.73125,
2014-04-26, 21:31:04,VALID,918.213,VALID,0,VALID,96.7945,VALID,0,VALID,20.1513,VALID,145,VALID,0.646875,
2014-04-26, 21:32:04,VALID,918.208,VALID,0,VALID,96.8098,VALID,0,VALID,20.1724,VALID,144,VALID,0.392578,
2014-04-26, 21:33:04,VALID,918.197,VALID,0,VALID,96.8021,VALID,0,VALID,20.1724,VALID,143,VALID,0.759375,
2014-04-26, 21:34:04,VALID,918.19,VALID,0,VALID,96.8174,VALID,0,VALID,20.1529,VALID,136,VALID,1.01797,
2014-04-26, 21:35:04,VALID,918.213,VALID,0,VALID,96.8098,VALID,0,VALID,20.1529,VALID,132,VALID,0.610937,
2014-04-26, 21:36:04,VALID,918.214,VALID,0,VALID,96.7945,VALID,0,VALID,20.1139,VALID,129,VALID,1.02461,
2014-04-26, 21:37:04,VALID,918.192,VALID,0,VALID,96.8098,VALID,0,VALID,20.1334,VALID,136,VALID,0.611328,
2014-04-26, 21:38:04,VALID,918.235,VALID,0,VALID,96.825,VALID,0,VALID,20.1139,VALID,136,VALID,0.603516,
2014-04-26, 21:39:04,VALID,918.249,VALID,0,VALID,96.7793,VALID,0,VALID,20.0928,VALID,136,VALID,0.809766,
2014-04-26, 21:40:04,VALID,918.223,VALID,0,VALID,96.7793,VALID,0,VALID,20.1318,VALID,138,VALID,0.559766,
2014-04-26, 21:41:04,VALID,918.249,VALID,0,VALID,96.8021,VALID,0,VALID,20.1724,VALID,132,VALID,0.476563,
2014-04-26, 21:42:04,VALID,918.236,VALID,0,VALID,96.7869,VALID,0,VALID,20.1724,VALID,124,VALID,0.473047,
2014-04-26, 21:43:04,VALID,918.241,VALID,0,VALID,96.8021,VALID,0,VALID,20.1529,VALID,102,VALID,0.884375,
2014-04-26, 21:44:04,VALID,918.228,VALID,0,VALID,96.7869,VALID,0,VALID,20.1529,VALID,110,VALID,0.705469,
2014-04-26, 21:45:04,VALID,918.243,VALID,0,VALID,96.7869,VALID,0,VALID,20.1724,VALID,110,VALID,0.791016,
2014-04-26, 21:46:04,VALID,918.254,VALID,0,VALID,96.8098,VALID,0,VALID,20.1529,VALID,122,VALID,0.940625,
2014-04-26, 21:47:04,VALID,918.268,VALID,0,VALID,96.764,VALID,0,VALID,20.1724,VALID,114,VALID,0.714844,
2014-04-26, 21:48:04,VALID,918.288,VALID,0,VALID,96.7945,VALID,0,VALID,20.1724,VALID,140,VALID,0.839844,
2014-04-26, 21:49:04,VALID,918.315,VALID,0,VALID,96.7945,VALID,0,VALID,20.1919,VALID,151,VALID,1.20547,
2014-04-26, 21:50:04,VALID,918.331,VALID,0,VALID,96.7945,VALID,0,VALID,20.1708,VALID,145,VALID,1.60781,
2014-04-26, 21:51:04,VALID,918.348,VALID,0,VALID,96.7869,VALID,0,VALID,20.2114,VALID,138,VALID,1.73984,
2014-04-26, 21:52:04,VALID,918.338,VALID,0,VALID,96.7945,VALID,0,VALID,20.1903,VALID,145,VALID,0.984766,
2014-04-26, 21:53:04,VALID,918.353,VALID,0,VALID,96.7945,VALID,0,VALID,20.2114,VALID,153,VALID,1.20078,
2014-04-26, 21:54:04,VALID,918.355,VALID,0,VALID,96.7793,VALID,0,VALID,20.1903,VALID,138,VALID,1.11992,
2014-04-26, 21:55:04,VALID,918.344,VALID,0,VALID,96.7793,VALID,0,VALID,20.1903,VALID,151,VALID,0.7,
2014-04-26, 21:56:04,VALID,918.354,VALID,0,VALID,96.7716,VALID,0,VALID,20.2114,VALID,125,VALID,1.33477,
2014-04-26, 21:57:04,VALID,918.362,VALID,0,VALID,96.7793,VALID,0,VALID,20.1708,VALID,138,VALID,0.926562,
2014-04-26, 21:58:04,VALID,918.354,VALID,0,VALID,96.7945,VALID,0,VALID,20.1903,VALID,137,VALID,0.301562,
2014-04-26, 21:59:04,VALID,918.34,VALID,0,VALID,96.7945,VALID,0,VALID,20.2098,VALID,137,VALID,0.392969,
2014-04-26, 22:00:04,VALID,918.366,VALID,0,VALID,96.7869,VALID,0,VALID,20.2309,VALID,137,VALID,0.224219,
2014-04-26, 22:01:04,VALID,918.368,VALID,0,VALID,96.7869,VALID,0,VALID,20.1903,VALID,137,VALID,0.314453,
2014-04-26, 22:02:04,VALID,918.349,VALID,0,VALID,96.7869,VALID,0,VALID,20.2309,VALID,137,VALID,0.446484,
2014-04-26, 22:03:04,VALID,918.328,VALID,0,VALID,96.7793,VALID,0,VALID,20.1903,VALID,141,VALID,0.532812,
2014-04-26, 22:04:04,VALID,918.318,VALID,0,VALID,96.7793,VALID,0,VALID,20.1903,VALID,141,VALID,0.200781,
2014-04-26, 22:05:04,VALID,918.296,VALID,0,VALID,96.7945,VALID,0,VALID,20.1903,VALID,141,VALID,0.265625,
2014-04-26, 22:06:04,VALID,918.252,VALID,0,VALID,96.7793,VALID,0,VALID,20.1919,VALID,141,VALID,0,
2014-04-26, 22:07:04,VALID,918.256,VALID,0,VALID,96.8098,VALID,0,VALID,20.1724,VALID,141,VALID,0,
2014-04-26, 22:08:04,VALID,918.261,VALID,0,VALID,96.8021,VALID,0,VALID,20.1708,VALID,141,VALID,0,
2014-04-26, 22:09:04,VALID,918.248,VALID,0,VALID,96.7945,VALID,0,VALID,20.1708,VALID,141,VALID,0,
2014-04-26, 22:10:04,VALID,918.274,VALID,0,VALID,96.7793,VALID,0,VALID,20.1919,VALID,141,VALID,0.0191406,
2014-04-26, 22:11:04,VALID,918.278,VALID,0,VALID,96.7869,VALID,0,VALID,20.1529,VALID,141,VALID,0.508984,
2014-04-26, 22:12:04,VALID,918.275,VALID,0,VALID,96.8021,VALID,0,VALID,20.1139,VALID,141,VALID,0.588281,
2014-04-26, 22:13:04,VALID,918.294,VALID,0,VALID,96.8021,VALID,0,VALID,20.1139,VALID,134,VALID,0.884375,
2014-04-26, 22:14:04,VALID,918.298,VALID,0,VALID,96.8098,VALID,0,VALID,20.0944,VALID,115,VALID,0.772266,
2014-04-26, 22:15:04,VALID,918.298,VALID,0,VALID,96.8098,VALID,0,VALID,20.0944,VALID,115,VALID,0.605469,
2014-04-26, 22:16:04,VALID,918.311,VALID,0,VALID,96.8174,VALID,0,VALID,20.0749,VALID,115,VALID,0.577344,
2014-04-26, 22:17:04,VALID,918.293,VALID,0,VALID,96.8174,VALID,0,VALID,20.0538,VALID,115,VALID,0.509375,
2014-04-26, 22:18:04,VALID,918.309,VALID,0,VALID,96.8174,VALID,0,VALID,20.0343,VALID,115,VALID,0.438281,
2014-04-26, 22:19:04,VALID,918.288,VALID,0,VALID,96.825,VALID,0,VALID,20.0553,VALID,115,VALID,0.158984,
2014-04-26, 22:20:04,VALID,918.249,VALID,0,VALID,96.8326,VALID,0,VALID,20.0749,VALID,115,VALID,0,
2014-04-26, 22:21:04,VALID,918.275,VALID,0,VALID,96.8174,VALID,0,VALID,20.0944,VALID,115,VALID,0.308984,
2014-04-26, 22:22:04,VALID,918.237,VALID,0,VALID,96.8326,VALID,0,VALID,20.0749,VALID,115,VALID,0.465625,
2014-04-26, 22:23:04,VALID,918.266,VALID,0,VALID,96.7945,VALID,0,VALID,20.0538,VALID,110,VALID,0.623828,
2014-04-26, 22:24:04,VALID,918.204,VALID,0,VALID,96.8174,VALID,0,VALID,20.0358,VALID,91,VALID,0.531641,
2014-04-26, 22:25:04,VALID,918.213,VALID,0,VALID,96.825,VALID,0,VALID,20.0358,VALID,91,VALID,0.345703,
2014-04-26, 22:26:04,VALID,918.197,VALID,0,VALID,96.8326,VALID,0,VALID,20.0163,VALID,91,VALID,0.421875,
2014-04-26, 22:27:04,VALID,918.195,VALID,0,VALID,96.8326,VALID,0,VALID,20.0163,VALID,91,VALID,0.512109,
2014-04-26, 22:28:04,VALID,918.146,VALID,0,VALID,96.8326,VALID,0,VALID,19.9758,VALID,91,VALID,0.486328,
2014-04-26, 22:29:04,VALID,918.142,VALID,0,VALID,96.825,VALID,0,VALID,19.9773,VALID,91,VALID,0.596484,
2014-04-26, 22:30:04,VALID,918.105,VALID,0,VALID,96.8403,VALID,0,VALID,19.9578,VALID,91,VALID,0.644922,
2014-04-26, 22:31:04,VALID,918.131,VALID,0,VALID,96.8403,VALID,0,VALID,19.9383,VALID,91,VALID,0.836328,
2014-04-26, 22:32:04,VALID,918.096,VALID,0,VALID,96.8174,VALID,0,VALID,19.9383,VALID,91,VALID,0.838281,
2014-04-26, 22:33:04,VALID,918.13,VALID,0,VALID,96.8479,VALID,0,VALID,19.9188,VALID,91,VALID,0.580078,
2014-04-26, 22:34:04,VALID,918.146,VALID,0,VALID,96.8403,VALID,0,VALID,19.8993,VALID,91,VALID,0.620703,
2014-04-26, 22:35:04,VALID,918.12,VALID,0,VALID,96.8326,VALID,0,VALID,19.8993,VALID,92,VALID,0.666406,
2014-04-26, 22:36:04,VALID,918.122,VALID,0,VALID,96.8326,VALID,0,VALID,19.8798,VALID,92,VALID,0.746484,
2014-04-26, 22:37:04,VALID,918.094,VALID,0,VALID,96.8403,VALID,0,VALID,19.8798,VALID,93,VALID,0.749609,
2014-04-26, 22:38:04,VALID,918.101,VALID,0,VALID,96.8403,VALID,0,VALID,19.8603,VALID,98,VALID,0.610156,
2014-04-26, 22:39:04,VALID,918.105,VALID,0,VALID,96.8403,VALID,0,VALID,19.8393,VALID,98,VALID,0.728125,
2014-04-26, 22:40:04,VALID,918.065,VALID,0,VALID,96.8555,VALID,0,VALID,19.8603,VALID,103,VALID,0.629687,
2014-04-26, 22:41:04,VALID,918.034,VALID,0,VALID,96.8479,VALID,0,VALID,19.8603,VALID,103,VALID,0.708594,
2014-04-26, 22:42:04,VALID,918.054,VALID,0,VALID,96.8479,VALID,0,VALID,19.8408,VALID,104,VALID,0.6125,
2014-04-26, 22:43:04,VALID,917.986,VALID,0,VALID,96.8555,VALID,0,VALID,19.8408,VALID,104,VALID,0.355469,
2014-04-26, 22:44:04,VALID,917.997,VALID,0,VALID,96.8555,VALID,0,VALID,19.8198,VALID,104,VALID,0.422656,
2014-04-26, 22:45:04,VALID,917.951,VALID,0,VALID,96.8631,VALID,0,VALID,19.8213,VALID,103,VALID,0.517969,
2014-04-26, 22:46:04,VALID,917.924,VALID,0,VALID,96.8479,VALID,0,VALID,19.8198,VALID,103,VALID,0.527344,
2014-04-26, 22:47:04,VALID,917.939,VALID,0,VALID,96.8555,VALID,0,VALID,19.8018,VALID,104,VALID,0.583984,
2014-04-26, 22:48:04,VALID,917.916,VALID,0,VALID,96.8707,VALID,0,VALID,19.8018,VALID,103,VALID,0.610547,
2014-04-26, 22:49:04,VALID,917.891,VALID,0,VALID,96.8555,VALID,0,VALID,19.7628,VALID,104,VALID,0.753906,
2014-04-26, 22:50:04,VALID,917.892,VALID,0,VALID,96.8555,VALID,0,VALID,19.7628,VALID,104,VALID,0.751953,
2014-04-26, 22:51:04,VALID,917.882,VALID,0,VALID,96.8631,VALID,0,VALID,19.7223,VALID,99,VALID,0.690625,
2014-04-26, 22:52:04,VALID,917.859,VALID,0,VALID,96.8784,VALID,0,VALID,19.7028,VALID,94,VALID,0.803516,
2014-04-26, 22:53:04,VALID,917.867,VALID,0,VALID,96.8707,VALID,0,VALID,19.7043,VALID,91,VALID,0.869531,